| time (UTC) | temp F | wind direction | speed MPH | gust MPH | rain 1hr in | rain 24hr in | rain mn in | humidity % | barometer mb |
| 20260505211204 | 92 | 162 | 2.0 | 5.0 | 0.00 | 0.00 | 0.00 | 56 | 1003.7 |
| 20260505210704 | 92 | 157 | 2.0 | 5.0 | 0.00 | 0.00 | 0.00 | 56 | 1003.5 |
| 20260505205203 | 91 | 305 | 1.0 | 3.0 | 0.00 | 0.00 | 0.00 | 57 | 1003.7 |
| 20260505204704 | 91 | 280 | 1.0 | 3.0 | 0.00 | 0.00 | 0.00 | 56 | 1003.8 |
| 20260505204204 | 91 | 122 | 1.0 | 3.0 | 0.00 | 0.00 | 0.00 | 58 | 1003.8 |
| 20260505203703 | 91 | 251 | 0.0 | 2.0 | 0.00 | 0.00 | 0.00 | 58 | 1004.0 |
| 20260505203204 | 90 | 162 | 1.0 | 5.0 | 0.00 | 0.00 | 0.00 | 59 | 1004.0 |
| 20260505202704 | 90 | 257 | 3.0 | 9.0 | 0.00 | 0.00 | 0.00 | 58 | 1004.0 |
| 20260505202203 | 90 | 272 | 2.0 | 6.0 | 0.00 | 0.00 | 0.00 | 59 | 1004.0 |
| 20260505201704 | 90 | 284 | 0.0 | 5.0 | 0.00 | 0.00 | 0.00 | 58 | 1004.0 |
| 20260505200204 | 90 | 149 | 2.0 | 7.0 | 0.00 | 0.00 | 0.00 | 58 | 1004.1 |
| 20260505195704 | 90 | 124 | 1.0 | 5.0 | 0.00 | 0.00 | 0.00 | 60 | 1004.1 |
| 20260505195205 | 90 | 122 | 2.0 | 6.0 | 0.00 | 0.00 | 0.00 | 60 | 1004.1 |
| 20260505194204 | 89 | 255 | 2.0 | 6.0 | 0.00 | 0.00 | 0.00 | 61 | 1004.2 |
| 20260505193704 | 89 | 149 | 2.0 | 5.0 | 0.00 | 0.00 | 0.00 | 61 | 1004.3 |
| 20260505193204 | 88 | 173 | 3.0 | 6.0 | 0.00 | 0.00 | 0.00 | 62 | 1004.2 |
| 20260505192705 | 89 | 308 | 2.0 | 5.0 | 0.00 | 0.00 | 0.00 | 61 | 1004.2 |
| 20260505191704 | 88 | 214 | 2.0 | 9.0 | 0.00 | 0.00 | 0.00 | 63 | 1004.2 |
| 20260505191204 | 88 | 137 | 2.0 | 5.0 | 0.00 | 0.00 | 0.00 | 64 | 1004.3 |
| 20260505190704 | 87 | 284 | 1.0 | 3.0 | 0.00 | 0.00 | 0.00 | 65 | 1004.4 |
| 20260505190204 | 87 | 103 | 1.0 | 6.0 | 0.00 | 0.00 | 0.00 | 65 | 1004.4 |
| 20260505185704 | 87 | 145 | 3.0 | 9.0 | 0.00 | 0.00 | 0.00 | 64 | 1004.3 |
| 20260505184705 | 86 | 125 | 3.0 | 8.0 | 0.00 | 0.00 | 0.00 | 64 | 1004.4 |
| 20260505184204 | 87 | 109 | 2.0 | 6.0 | 0.00 | 0.00 | 0.00 | 64 | 1004.4 |
| 20260505183704 | 86 | 282 | 1.0 | 3.0 | 0.00 | 0.00 | 0.00 | 65 | 1004.6 |
| 20260505183204 | 86 | 336 | 2.0 | 3.0 | 0.00 | 0.00 | 0.00 | 65 | 1004.5 |
| 20260505182704 | 85 | 251 | 3.0 | 9.0 | 0.00 | 0.00 | 0.00 | 65 | 1004.5 |
| 20260505182204 | 85 | 197 | 4.0 | 8.0 | 0.00 | 0.00 | 0.00 | 65 | 1004.5 |
| 20260505181204 | 86 | 290 | 1.0 | 3.0 | 0.00 | 0.00 | 0.00 | 65 | 1004.8 |
| 20260505180705 | 85 | 138 | 2.0 | 6.0 | 0.00 | 0.00 | 0.00 | 66 | 1004.7 |
| 20260505180204 | 85 | 113 | 3.0 | 6.0 | 0.00 | 0.00 | 0.00 | 65 | 1004.8 |
| 20260505175704 | 85 | 147 | 2.0 | 5.0 | 0.00 | 0.00 | 0.00 | 65 | 1004.7 |
| 20260505175204 | 85 | 240 | 2.0 | 6.0 | 0.00 | 0.00 | 0.00 | 65 | 1004.7 |
| 20260505174204 | 85 | 135 | 2.0 | 7.0 | 0.00 | 0.00 | 0.00 | 65 | 1004.9 |
| 20260505173704 | 84 | 165 | 2.0 | 6.0 | 0.00 | 0.00 | 0.00 | 66 | 1004.9 |
| 20260505173204 | 84 | 60 | 1.0 | 8.0 | 0.00 | 0.00 | 0.00 | 66 | 1004.9 |
| 20260505172704 | 84 | 106 | 2.0 | 6.0 | 0.00 | 0.00 | 0.00 | 66 | 1004.9 |
| 20260505172205 | 84 | 79 | 1.0 | 6.0 | 0.00 | 0.00 | 0.00 | 67 | 1005.0 |
| 20260505171705 | 84 | 153 | 1.0 | 5.0 | 0.00 | 0.00 | 0.00 | 67 | 1005.0 |
| 20260505171204 | 84 | 110 | 3.0 | 12.0 | 0.00 | 0.00 | 0.00 | 67 | 1005.0 |
| 20260505165704 | 83 | 127 | 1.0 | 6.0 | 0.00 | 0.00 | 0.00 | 67 | 1005.1 |
| 20260505164705 | 83 | 118 | 2.0 | 8.0 | 0.00 | 0.00 | 0.00 | 67 | 1004.8 |
| 20260505164204 | 83 | 65 | 2.0 | 8.0 | 0.00 | 0.00 | 0.00 | 67 | 1004.8 |
| 20260505163704 | 83 | 173 | 1.0 | 5.0 | 0.00 | 0.00 | 0.00 | 67 | 1004.8 |
| 20260505163204 | 83 | 241 | 2.0 | 10.0 | 0.00 | 0.00 | 0.00 | 66 | 1004.8 |
| 20260505162704 | 82 | 260 | 1.0 | 12.0 | 0.00 | 0.00 | 0.00 | 68 | 1004.7 |
| 20260505162205 | 82 | 138 | 2.0 | 13.0 | 0.00 | 0.00 | 0.00 | 68 | 1004.7 |
| 20260505161205 | 82 | 142 | 2.0 | 5.0 | 0.00 | 0.00 | 0.00 | 68 | 1004.7 |
| 20260505160204 | 81 | 143 | 1.0 | 9.0 | 0.00 | 0.00 | 0.00 | 69 | 1004.6 |
| 20260505153204 | 80 | 109 | 2.0 | 8.0 | 0.00 | 0.00 | 0.00 | 69 | 1004.6 |
| 20260505152705 | 80 | 141 | 4.0 | 12.0 | 0.00 | 0.00 | 0.00 | 69 | 1004.6 |
| 20260505151704 | 79 | 193 | 2.0 | 6.0 | 0.00 | 0.00 | 0.00 | 70 | 1004.6 |
| 20260505151204 | 79 | 217 | 2.0 | 6.0 | 0.00 | 0.00 | 0.00 | 70 | 1004.7 |
| 20260505150704 | 78 | 81 | 2.0 | 7.0 | 0.00 | 0.00 | 0.00 | 71 | 1004.7 |
| 20260505150204 | 78 | 165 | 2.0 | 5.0 | 0.00 | 0.00 | 0.00 | 71 | 1004.7 |
| 20260505140203 | 73 | 87 | 1.0 | 7.0 | 0.00 | 0.00 | 0.00 | 77 | 1004.4 |
| 20260505124704 | 72 | 146 | 1.0 | 7.0 | 0.00 | 0.00 | 0.00 | 79 | 1004.4 |
| 20260505123704 | 71 | 121 | 2.0 | 7.0 | 0.00 | 0.00 | 0.00 | 79 | 1004.3 |
| 20260505123204 | 71 | 127 | 1.0 | 3.0 | 0.00 | 0.00 | 0.00 | 79 | 1004.1 |
| 20260505122704 | 71 | 94 | 2.0 | 6.0 | 0.00 | 0.00 | 0.00 | 79 | 1004.0 |
| 20260505122204 | 71 | 117 | 2.0 | 12.0 | 0.00 | 0.00 | 0.00 | 79 | 1004.0 |
| 20260505121204 | 71 | 134 | 2.0 | 10.0 | 0.00 | 0.00 | 0.00 | 79 | 1004.0 |
| 20260505120704 | 71 | 114 | 3.0 | 7.0 | 0.00 | 0.00 | 0.00 | 79 | 1004.0 |
| 20260505120204 | 71 | 122 | 1.0 | 6.0 | 0.00 | 0.00 | 0.00 | 79 | 1003.9 |
| 20260505115704 | 71 | 127 | 2.0 | 5.0 | 0.00 | 0.00 | 0.00 | 79 | 1003.9 |
| 20260505115204 | 71 | 222 | 3.0 | 7.0 | 0.00 | 0.00 | 0.00 | 79 | 1003.9 |
| 20260505114704 | 71 | 101 | 2.0 | 7.0 | 0.00 | 0.00 | 0.00 | 79 | 1003.9 |
| 20260505113704 | 71 | 246 | 1.0 | 7.0 | 0.00 | 0.00 | 0.00 | 79 | 1003.9 |
| 20260505113204 | 71 | 154 | 1.0 | 5.0 | 0.00 | 0.00 | 0.00 | 79 | 1003.7 |
| 20260505112704 | 71 | 138 | 2.0 | 7.0 | 0.00 | 0.00 | 0.00 | 79 | 1003.6 |
| 20260505112204 | 71 | 176 | 2.0 | 3.0 | 0.00 | 0.00 | 0.00 | 79 | 1003.7 |
| 20260505111703 | 71 | 117 | 1.0 | 5.0 | 0.00 | 0.00 | 0.00 | 79 | 1003.7 |
| 20260505111203 | 71 | 152 | 3.0 | 6.0 | 0.00 | 0.00 | 0.00 | 79 | 1003.7 |
| 20260505110704 | 71 | 172 | 3.0 | 12.0 | 0.00 | 0.00 | 0.00 | 79 | 1003.6 |
| 20260505102204 | 71 | 127 | 3.0 | 7.0 | 0.00 | 0.00 | 0.00 | 79 | 1003.7 |
| 20260505101704 | 71 | 193 | 1.0 | 7.0 | 0.00 | 0.00 | 0.00 | 78 | 1003.7 |
| 20260505101204 | 71 | 136 | 2.0 | 6.0 | 0.00 | 0.00 | 0.00 | 78 | 1003.7 |
| 20260505100704 | 71 | 123 | 3.0 | 9.0 | 0.00 | 0.00 | 0.00 | 78 | 1003.8 |
| 20260505100204 | 71 | 137 | 3.0 | 6.0 | 0.00 | 0.00 | 0.00 | 78 | 1003.8 |
| 20260505095204 | 71 | 132 | 3.0 | 9.0 | 0.00 | 0.00 | 0.00 | 78 | 1003.9 |
| 20260505094703 | 71 | 134 | 2.0 | 9.0 | 0.00 | 0.00 | 0.00 | 78 | 1004.0 |
| 20260505094204 | 71 | 151 | 5.0 | 14.0 | 0.00 | 0.00 | 0.00 | 78 | 1003.9 |
| 20260505093704 | 71 | 153 | 3.0 | 6.0 | 0.00 | 0.00 | 0.00 | 78 | 1004.0 |
| 20260505093204 | 71 | 139 | 3.0 | 12.0 | 0.00 | 0.00 | 0.00 | 78 | 1004.0 |
| 20260505092704 | 71 | 138 | 2.0 | 8.0 | 0.00 | 0.00 | 0.00 | 78 | 1004.1 |
| 20260505092204 | 71 | 153 | 2.0 | 7.0 | 0.00 | 0.00 | 0.00 | 78 | 1004.1 |
| 20260505091704 | 71 | 180 | 2.0 | 9.0 | 0.00 | 0.00 | 0.00 | 79 | 1004.1 |
| 20260505091204 | 71 | 130 | 1.0 | 7.0 | 0.00 | 0.00 | 0.00 | 79 | 1004.2 |
| 20260505090704 | 71 | 131 | 2.0 | 5.0 | 0.00 | 0.00 | 0.00 | 79 | 1004.3 |
| 20260505090204 | 71 | 147 | 3.0 | 8.0 | 0.00 | 0.00 | 0.00 | 79 | 1004.2 |
| 20260505085704 | 71 | 153 | 3.0 | 8.0 | 0.00 | 0.00 | 0.00 | 79 | 1004.2 |
| 20260505085204 | 71 | 167 | 2.0 | 9.0 | 0.00 | 0.00 | 0.00 | 79 | 1004.2 |
| 20260505084703 | 71 | 146 | 2.0 | 6.0 | 0.00 | 0.00 | 0.00 | 79 | 1004.2 |
| 20260505083704 | 71 | 93 | 2.0 | 8.0 | 0.00 | 0.00 | 0.00 | 79 | 1004.2 |
| 20260505083204 | 71 | 133 | 2.0 | 10.0 | 0.00 | 0.00 | 0.00 | 79 | 1004.2 |
| 20260505082703 | 71 | 109 | 4.0 | 12.0 | 0.00 | 0.00 | 0.00 | 79 | 1004.2 |
| 20260505082203 | 71 | 124 | 2.0 | 7.0 | 0.00 | 0.00 | 0.00 | 79 | 1004.2 |
| 20260505081704 | 71 | 144 | 2.0 | 7.0 | 0.00 | 0.00 | 0.00 | 79 | 1004.3 |
| 20260505081204 | 71 | 122 | 3.0 | 7.0 | 0.00 | 0.00 | 0.00 | 79 | 1004.3 |
| 20260505080703 | 71 | 119 | 2.0 | 9.0 | 0.00 | 0.00 | 0.00 | 79 | 1004.3 |
| 20260505075205 | 71 | 118 | 2.0 | 5.0 | 0.00 | 0.00 | 0.00 | 78 | 1004.5 |
| 20260505074705 | 71 | 123 | 2.0 | 6.0 | 0.00 | 0.00 | 0.00 | 78 | 1004.6 |
| 20260505074205 | 71 | 184 | 2.0 | 12.0 | 0.00 | 0.00 | 0.00 | 78 | 1004.7 |
| 20260505073704 | 71 | 156 | 2.0 | 7.0 | 0.00 | 0.00 | 0.00 | 78 | 1004.8 |
| 20260505073205 | 71 | 143 | 2.0 | 5.0 | 0.00 | 0.00 | 0.00 | 78 | 1004.9 |
| 20260505072704 | 71 | 128 | 2.0 | 7.0 | 0.00 | 0.00 | 0.00 | 78 | 1004.9 |
| 20260505072205 | 71 | 183 | 2.0 | 6.0 | 0.00 | 0.00 | 0.00 | 78 | 1005.1 |
| 20260505071204 | 72 | 140 | 2.0 | 8.0 | 0.00 | 0.00 | 0.00 | 78 | 1005.2 |
| 20260505070704 | 72 | 125 | 2.0 | 9.0 | 0.00 | 0.00 | 0.00 | 78 | 1005.2 |
| 20260505070205 | 72 | 71 | 3.0 | 7.0 | 0.00 | 0.00 | 0.00 | 77 | 1005.3 |
| 20260505065705 | 72 | 111 | 2.0 | 9.0 | 0.00 | 0.00 | 0.00 | 77 | 1005.3 |
| 20260505065204 | 72 | 99 | 1.0 | 6.0 | 0.00 | 0.00 | 0.00 | 77 | 1005.3 |
| 20260505064705 | 72 | 149 | 3.0 | 5.0 | 0.00 | 0.00 | 0.00 | 77 | 1005.4 |
| 20260505064204 | 72 | 124 | 3.0 | 7.0 | 0.00 | 0.00 | 0.00 | 77 | 1005.4 |
| 20260505063704 | 72 | 153 | 2.0 | 9.0 | 0.00 | 0.00 | 0.00 | 77 | 1005.5 |
| 20260505062705 | 72 | 148 | 4.0 | 12.0 | 0.00 | 0.00 | 0.00 | 76 | 1005.5 |
| 20260505062205 | 72 | 156 | 3.0 | 12.0 | 0.00 | 0.00 | 0.00 | 76 | 1005.5 |
| 20260505061204 | 73 | 121 | 3.0 | 7.0 | 0.00 | 0.00 | 0.00 | 76 | 1005.5 |
| 20260505060704 | 73 | 135 | 3.0 | 6.0 | 0.00 | 0.00 | 0.00 | 76 | 1005.5 |
| 20260505060205 | 73 | 128 | 5.0 | 8.0 | 0.00 | 0.00 | 0.00 | 76 | 1005.5 |
| 20260505055705 | 73 | 109 | 3.0 | 6.0 | 0.00 | 0.00 | 0.00 | 76 | 1005.6 |
| 20260505055204 | 73 | 99 | 3.0 | 12.0 | 0.00 | 0.00 | 0.00 | 75 | 1005.6 |
| 20260505054704 | 73 | 145 | 2.0 | 6.0 | 0.00 | 0.00 | 0.00 | 75 | 1005.6 |
| 20260505054204 | 73 | 122 | 3.0 | 8.0 | 0.00 | 0.00 | 0.00 | 75 | 1005.7 |
| 20260505053704 | 73 | 103 | 1.0 | 7.0 | 0.00 | 0.00 | 0.00 | 75 | 1005.8 |
| 20260505053204 | 73 | 115 | 3.0 | 7.0 | 0.00 | 0.00 | 0.00 | 75 | 1005.8 |
| 20260505052704 | 73 | 129 | 3.0 | 7.0 | 0.00 | 0.00 | 0.00 | 75 | 1005.8 |
| 20260505051704 | 73 | 128 | 3.0 | 10.0 | 0.00 | 0.00 | 0.00 | 74 | 1005.9 |
| 20260505051205 | 73 | 102 | 2.0 | 5.0 | 0.00 | 0.00 | 0.00 | 74 | 1005.9 |
| 20260505050705 | 73 | 75 | 2.0 | 10.0 | 0.00 | 0.00 | 0.00 | 74 | 1006.0 |
| 20260505050204 | 74 | 102 | 3.0 | 9.0 | 0.00 | 0.00 | 0.00 | 74 | 1005.9 |
| 20260505041704 | 74 | 116 | 1.0 | 9.0 | 0.00 | 0.00 | 0.00 | 72 | 1006.2 |
| 20260505041204 | 74 | 122 | 2.0 | 8.0 | 0.00 | 0.00 | 0.00 | 72 | 1006.3 |
| 20260505040704 | 74 | 80 | 2.0 | 7.0 | 0.00 | 0.00 | 0.00 | 72 | 1006.2 |
| 20260505035704 | 74 | 140 | 1.0 | 6.0 | 0.00 | 0.00 | 0.00 | 72 | 1006.3 |
| 20260505035204 | 74 | 138 | 2.0 | 9.0 | 0.00 | 0.00 | 0.00 | 72 | 1006.1 |
| 20260505034703 | 74 | 95 | 2.0 | 7.0 | 0.00 | 0.00 | 0.00 | 72 | 1006.2 |
| 20260505034204 | 74 | 106 | 2.0 | 7.0 | 0.00 | 0.00 | 0.00 | 72 | 1006.1 |
| 20260505033704 | 74 | 134 | 2.0 | 8.0 | 0.00 | 0.00 | 0.00 | 71 | 1006.1 |
| 20260505033204 | 74 | 132 | 3.0 | 7.0 | 0.00 | 0.00 | 0.00 | 71 | 1006.0 |
| 20260505032703 | 75 | 107 | 4.0 | 12.0 | 0.00 | 0.00 | 0.00 | 71 | 1006.2 |
| 20260505032204 | 75 | 118 | 3.0 | 8.0 | 0.00 | 0.00 | 0.00 | 71 | 1006.2 |
| 20260505031704 | 75 | 131 | 3.0 | 12.0 | 0.00 | 0.00 | 0.00 | 71 | 1006.2 |
| 20260505031204 | 75 | 118 | 2.0 | 10.0 | 0.00 | 0.00 | 0.00 | 70 | 1006.3 |
| 20260505030703 | 75 | 125 | 3.0 | 10.0 | 0.00 | 0.00 | 0.00 | 70 | 1006.3 |
| 20260505025704 | 75 | 134 | 2.0 | 9.0 | 0.00 | 0.00 | 0.00 | 70 | 1006.3 |
| 20260505025204 | 75 | 135 | 2.0 | 8.0 | 0.00 | 0.00 | 0.00 | 70 | 1006.3 |
| 20260505024704 | 75 | 107 | 3.0 | 12.0 | 0.00 | 0.00 | 0.00 | 70 | 1006.3 |
| 20260505024204 | 75 | 130 | 4.0 | 12.0 | 0.00 | 0.00 | 0.00 | 70 | 1006.4 |
| 20260505023703 | 75 | 116 | 2.0 | 9.0 | 0.00 | 0.00 | 0.00 | 70 | 1006.3 |
| 20260505023204 | 75 | 111 | 3.0 | 8.0 | 0.00 | 0.00 | 0.00 | 70 | 1006.1 |
| 20260505022704 | 75 | 127 | 2.0 | 9.0 | 0.00 | 0.00 | 0.00 | 69 | 1006.1 |
| 20260505022204 | 75 | 106 | 2.0 | 8.0 | 0.00 | 0.00 | 0.00 | 69 | 1006.1 |
| 20260505021204 | 75 | 160 | 2.0 | 6.0 | 0.00 | 0.00 | 0.00 | 69 | 1006.1 |
| 20260505020704 | 76 | 146 | 3.0 | 6.0 | 0.00 | 0.00 | 0.00 | 69 | 1006.1 |
| 20260505020204 | 76 | 126 | 2.0 | 9.0 | 0.00 | 0.00 | 0.00 | 69 | 1006.1 |
| 20260505015704 | 76 | 147 | 2.0 | 6.0 | 0.00 | 0.00 | 0.00 | 69 | 1006.1 |
| 20260505015204 | 76 | 97 | 2.0 | 7.0 | 0.00 | 0.00 | 0.00 | 69 | 1006.2 |
| 20260505014704 | 76 | 136 | 3.0 | 6.0 | 0.00 | 0.00 | 0.00 | 68 | 1006.1 |
| 20260505014204 | 76 | 92 | 2.0 | 12.0 | 0.00 | 0.00 | 0.00 | 68 | 1006.1 |
| 20260505013704 | 76 | 115 | 4.0 | 9.0 | 0.00 | 0.00 | 0.00 | 68 | 1006.1 |
| 20260505013203 | 76 | 147 | 2.0 | 7.0 | 0.00 | 0.00 | 0.00 | 68 | 1006.0 |
| 20260505012703 | 76 | 155 | 3.0 | 10.0 | 0.00 | 0.00 | 0.00 | 68 | 1006.1 |
| 20260505012203 | 76 | 140 | 5.0 | 7.0 | 0.00 | 0.00 | 0.00 | 67 | 1006.0 |
| 20260505011703 | 77 | 110 | 3.0 | 9.0 | 0.00 | 0.00 | 0.00 | 67 | 1006.0 |
| 20260505011206 | 77 | 130 | 3.0 | 8.0 | 0.00 | 0.00 | 0.00 | 67 | 1006.0 |
| 20260505010704 | 77 | 135 | 4.0 | 10.0 | 0.00 | 0.00 | 0.00 | 67 | 1006.0 |
| 20260505010205 | 77 | 123 | 3.0 | 8.0 | 0.00 | 0.00 | 0.00 | 67 | 1006.0 |
| 20260505005704 | 77 | 145 | 3.0 | 13.0 | 0.00 | 0.00 | 0.00 | 67 | 1005.8 |
| 20260505005203 | 77 | 133 | 3.0 | 7.0 | 0.00 | 0.00 | 0.00 | 66 | 1005.9 |
| 20260505004704 | 77 | 150 | 3.0 | 7.0 | 0.00 | 0.00 | 0.00 | 66 | 1006.0 |
| 20260505004204 | 78 | 122 | 4.0 | 12.0 | 0.00 | 0.00 | 0.00 | 66 | 1006.0 |
| 20260505003704 | 78 | 146 | 4.0 | 12.0 | 0.00 | 0.00 | 0.00 | 65 | 1006.2 |
| 20260505003204 | 78 | 104 | 2.0 | 8.0 | 0.00 | 0.00 | 0.00 | 65 | 1006.2 |
| 20260505002704 | 78 | 118 | 2.0 | 7.0 | 0.00 | 0.00 | 0.00 | 64 | 1006.1 |
| 20260505002204 | 79 | 129 | 3.0 | 7.0 | 0.00 | 0.00 | 0.00 | 64 | 1006.1 |
| 20260505001704 | 79 | 139 | 3.0 | 12.0 | 0.00 | 0.00 | 0.00 | 64 | 1006.2 |
| 20260505001204 | 79 | 127 | 3.0 | 13.0 | 0.00 | 0.00 | 0.00 | 63 | 1006.2 |
| 20260505000204 | 79 | 141 | 4.0 | 9.0 | 0.00 | 0.00 | 0.00 | 63 | 1006.2 |
| 20260504235704 | 79 | 146 | 2.0 | 9.0 | 0.00 | 0.00 | 0.00 | 63 | 1006.2 |
| 20260504235204 | 80 | 134 | 3.0 | 14.0 | 0.00 | 0.00 | 0.00 | 63 | 1006.3 |
| 20260504234703 | 79 | 127 | 3.0 | 12.0 | 0.00 | 0.00 | 0.00 | 63 | 1006.3 |
| 20260504234204 | 79 | 164 | 3.0 | 12.0 | 0.00 | 0.00 | 0.00 | 63 | 1006.5 |
| 20260504233703 | 79 | 155 | 4.0 | 9.0 | 0.00 | 0.00 | 0.00 | 63 | 1006.5 |
| 20260504233204 | 80 | 168 | 3.0 | 8.0 | 0.00 | 0.00 | 0.00 | 62 | 1006.4 |
| 20260504232204 | 80 | 100 | 3.0 | 10.0 | 0.00 | 0.00 | 0.00 | 62 | 1006.4 |
| 20260504231704 | 80 | 90 | 4.0 | 12.0 | 0.00 | 0.00 | 0.00 | 61 | 1006.4 |
| 20260504230703 | 81 | 113 | 3.0 | 17.0 | 0.00 | 0.00 | 0.00 | 61 | 1006.6 |
| 20260504230204 | 81 | 114 | 4.0 | 13.0 | 0.00 | 0.00 | 0.00 | 60 | 1006.5 |
| 20260504224704 | 81 | 118 | 4.0 | 13.0 | 0.00 | 0.00 | 0.00 | 60 | 1006.8 |
| 20260504224204 | 82 | 117 | 5.0 | 12.0 | 0.00 | 0.00 | 0.00 | 60 | 1006.7 |
| 20260504223704 | 82 | 145 | 5.0 | 10.0 | 0.00 | 0.00 | 0.00 | 60 | 1006.6 |
| 20260504223204 | 82 | 100 | 5.0 | 9.0 | 0.00 | 0.00 | 0.00 | 60 | 1006.6 |
| 20260504222704 | 81 | 120 | 5.0 | 10.0 | 0.00 | 0.00 | 0.00 | 60 | 1006.5 |
| 20260504222203 | 82 | 148 | 4.0 | 13.0 | 0.00 | 0.00 | 0.00 | 59 | 1006.7 |
| 20260504221704 | 82 | 106 | 3.0 | 8.0 | 0.00 | 0.00 | 0.00 | 59 | 1006.7 |
| 20260504221204 | 82 | 127 | 4.0 | 12.0 | 0.00 | 0.00 | 0.00 | 59 | 1006.8 |
| 20260504220703 | 82 | 105 | 5.0 | 14.0 | 0.00 | 0.00 | 0.00 | 59 | 1006.9 |
| 20260504220203 | 82 | 168 | 5.0 | 10.0 | 0.00 | 0.00 | 0.00 | 59 | 1007.0 |
| 20260504215704 | 82 | 166 | 4.0 | 9.0 | 0.00 | 0.00 | 0.00 | 59 | 1007.0 |
| 20260504214704 | 82 | 114 | 5.0 | 13.0 | 0.00 | 0.00 | 0.00 | 59 | 1007.2 |
| 20260504214203 | 82 | 103 | 5.0 | 10.0 | 0.00 | 0.00 | 0.00 | 58 | 1007.3 |
| 20260504213704 | 82 | 159 | 3.0 | 12.0 | 0.00 | 0.00 | 0.00 | 58 | 1007.5 |
| 20260504213203 | 83 | 129 | 5.0 | 15.0 | 0.00 | 0.00 | 0.00 | 58 | 1007.5 |
| 20260504212703 | 82 | 146 | 5.0 | 9.0 | 0.00 | 0.00 | 0.00 | 59 | 1007.5 |
| 20260504212204 | 82 | 106 | 5.0 | 12.0 | 0.00 | 0.00 | 0.00 | 59 | 1007.6 |
| 20260504211704 | 82 | 134 | 5.0 | 9.0 | 0.00 | 0.00 | 0.00 | 59 | 1007.8 |